1491714000.66,12550,11.31,74004.3,-5.65,-6.59,-6.59,0,*55
1491714001.86,12551,11.31,74004.5,-5.67,-6.51,-6.59,0,*5E
1491714003.09,12552,11.31,74006.5,-5.65,-6.51,-6.51,0,*57
1491714004.32,12553,11.31,74004.0,-5.65,-6.51,-6.59,0,*5E
1491714005.54,12554,11.31,74004.5,-5.65,-6.51,-6.51,0,*51
1491714006.77,12555,11.31,74004.3,-5.65,-6.51,-6.59,0,*58
1491714008.0,12556,11.38,74008.0,-5.61,-6.47,-6.47,0,*57
1491714009.22,12557,11.38,74004.8,-5.65,-6.51,-6.51,0,*52
1491714010.45,12558,11.31,74004.5,-5.61,-6.47,-6.47,0,*59
1491714011.65,12559,11.31,74000.8,-5.63,-6.47,-6.55,0,*59
1491714012.85,12560,11.31,74004.3,-5.63,-6.55,-6.47,0,*53
1491714014.08,12561,11.31,74006.5,-5.61,-6.47,-6.47,0,*53
1491714015.28,12562,11.38,74006.5,-5.63,-6.47,-6.55,0,*51
1491714016.47,12563,11.31,74004.0,-5.63,-6.47,-6.47,0,*53
1491714017.67,12564,11.31,74004.0,-5.63,-6.47,-6.55,0,*57
1491714018.87,12565,11.31,74006.5,-5.63,-6.47,-6.47,0,*55
1491714020.07,12566,11.38,74004.0,-5.63,-6.47,-6.55,0,*55
1491714021.27,12567,11.38,74006.0,-5.63,-6.55,-6.55,0,*57
1491714022.5,12568,11.38,74006.8,-5.61,-6.47,-6.55,0,*59
1491714023.7,12569,11.31,74004.3,-5.63,-6.47,-6.55,0,*5A
1491714024.92,12570,11.31,74004.0,-5.61,-6.47,-6.55,0,*50
1491714026.15,12571,11.38,74008.8,-5.61,-6.47,-6.55,0,*51
1491714027.37,12572,11.38,74004.8,-5.61,-6.47,-6.47,0,*51
1491714028.6,12573,11.38,74004.5,-5.61,-6.47,-6.47,0,*50
1491714029.83,12574,11.38,74006.0,-5.61,-6.55,-6.47,0,*54
1491714031.05,12575,11.38,74004.0,-5.61,-6.47,-6.47,0,*56
1491714032.28,12576,11.31,74006.3,-5.61,-6.47,-6.55,0,*56
1491714033.48,12577,11.38,74004.3,-5.63,-6.47,-6.55,0,*55
1491714034.68,12578,11.38,74006.8,-5.63,-6.55,-6.47,0,*5A
1491714035.9,12579,11.38,74006.3,-5.61,-6.47,-6.55,0,*59
1491714037.13,12580,11.38,74006.3,-5.61,-6.47,-6.47,0,*5C
1491714038.36,12581,11.38,74006.5,-5.61,-6.47,-6.47,0,*5D
1491714039.58,12582,11.38,74006.8,-5.57,-6.51,-6.43,0,*58
1491714040.81,12583,11.38,74006.8,-5.57,-6.43,-6.43,0,*5A
1491714042.01,12584,11.38,74004.0,-5.63,-6.47,-6.47,0,*5A
1491714043.23,12585,11.31,74000.3,-5.57,-6.43,-6.43,0,*5C
1491714044.46,12586,11.38,74006.8,-5.57,-6.43,-6.43,0,*5F
1491714045.68,12587,11.38,74008.8,-5.57,-6.43,-6.51,0,*5D
1491714046.91,12588,11.31,74002.5,-5.57,-6.43,-6.51,0,*52
1491714048.14,12589,11.38,74006.3,-5.57,-6.51,-6.43,0,*53
1491714049.36,12590,11.38,74006.8,-5.57,-6.43,-6.51,0,*5B
1491714050.59,12591,11.38,74006.8,-5.57,-6.43,-6.51,0,*5A
1491714051.78,12592,11.38,74004.0,-5.55,-6.43,-6.43,0,*58
1491714053.01,12593,11.38,74006.0,-5.57,-6.43,-6.43,0,*5B
1491714054.2,12594,11.38,74004.3,-5.55,-6.39,-6.39,0,*5E
1491714055.42,12595,11.38,74008.5,-5.57,-6.43,-6.43,0,*5D
1491714056.65,12596,11.38,74004.5,-5.57,-6.43,-6.43,0,*5E
1491714057.87,12597,11.38,74004.8,-5.57,-6.43,-6.43,0,*5F
1491714059.1,12598,11.38,74010.3,-5.57,-6.51,-6.43,0,*53
1491714060.29,12599,11.38,74010.3,-5.55,-6.39,-6.39,0,*53
1491714061.52,12600,11.31,74002.8,-5.57,-6.43,-6.51,0,*51
1491714062.74,12601,11.38,74006.5,-5.57,-6.43,-6.43,0,*53
1491714063.97,12602,11.38,74006.3,-5.57,-6.51,-6.43,0,*53
1491714065.2,12603,11.38,74006.0,-5.57,-6.43,-6.43,0,*51
1491714066.39,12604,11.38,74004.8,-5.55,-6.43,-6.43,0,*54
1491714067.58,12605,11.38,74008.0,-5.55,-6.39,-6.39,0,*55
1491714068.78,12606,11.38,74006.5,-5.55,-6.47,-6.39,0,*5F
1491714069.97,12607,11.38,74008.3,-5.55,-6.39,-6.47,0,*5E
1491714071.17,12608,11.38,74006.5,-5.55,-6.35,-6.39,0,*54
1491714072.36,12609,11.38,74004.8,-5.55,-6.39,-6.39,0,*59
1491714073.55,12610,11.38,74006.3,-5.55,-6.39,-6.39,0,*51
1491714074.74,12611,11.38,74006.8,-5.55,-6.39,-6.39,0,*50
1491714075.94,12612,11.38,74004.3,-5.55,-6.47,-6.39,0,*5A
1491714077.13,12613,11.38,74006.3,-5.55,-6.39,-6.47,0,*5B
1491714078.32,12614,11.38,74004.3,-5.55,-6.39,-6.39,0,*55
1491714079.51,12615,11.38,74004.8,-5.55,-6.39,-6.39,0,*54
1491714080.74,12616,11.38,74004.5,-5.53,-6.39,-6.47,0,*58
1491714081.96,12617,11.38,74006.5,-5.53,-6.47,-6.39,0,*59
1491714083.18,12618,11.38,74006.3,-5.53,-6.39,-6.47,0,*56
1491714084.4,12619,11.38,74006.3,-5.53,-6.39,-6.39,0,*5E
1491714085.62,12620,11.38,74008.5,-5.53,-6.39,-6.39,0,*54
1491714086.84,12621,11.38,74004.5,-5.53,-6.39,-6.39,0,*55
1491714088.07,12622,11.38,74008.3,-5.53,-6.39,-6.39,0,*56
1491714089.29,12623,11.38,74010.0,-5.53,-6.47,-6.39,0,*5E
1491714090.51,12624,11.38,74010.0,-5.53,-6.39,-6.39,0,*50
1491714091.73,12625,11.38,74006.3,-5.53,-6.47,-6.43,0,*55
1491714092.95,12626,11.38,74004.8,-5.53,-6.39,-6.39,0,*52
1491714094.16,12627,11.38,74006.8,-5.51,-6.35,-6.35,0,*51
1491714095.36,12628,11.38,74004.3,-5.51,-6.35,-6.43,0,*5F
1491714096.56,12629,11.38,74006.3,-5.51,-6.35,-6.35,0,*5F
1491714097.79,12630,11.38,74004.0,-5.53,-6.39,-6.39,0,*55
1491714098.99,12631,11.38,74010.8,-5.51,-6.43,-6.35,0,*57
1491714100.19,12632,11.38,74006.3,-5.51,-6.35,-6.43,0,*54
1491714101.39,12633,11.38,74004.3,-5.51,-6.35,-6.35,0,*54
1491714102.62,12634,11.38,74004.0,-5.53,-6.39,-6.47,0,*58
1491714103.82,12635,11.38,74004.8,-5.51,-6.35,-6.43,0,*53
1491714105.04,12636,11.38,74010.5,-5.53,-6.39,-6.39,0,*53
1491714106.25,12637,11.38,74006.5,-5.51,-6.35,-6.35,0,*50
1491714107.47,12638,11.38,74006.3,-5.49,-6.35,-6.43,0,*57
1491714108.67,12639,11.38,74006.8,-5.51,-6.43,-6.35,0,*5F
1491714109.9,12640,11.38,74004.8,-5.49,-6.35,-6.35,0,*59
1491714111.13,12641,11.38,74006.8,-5.49,-6.35,-6.43,0,*59
1491714112.33,12642,11.38,74004.5,-5.51,-6.35,-6.43,0,*53
1491714113.54,12643,11.38,74004.3,-5.51,-6.35,-6.43,0,*52
1491714114.74,12644,11.38,74004.5,-5.51,-6.35,-6.43,0,*55
1491714115.97,12645,11.38,74006.3,-5.49,-6.35,-6.35,0,*5C
1491714117.2,12646,11.38,74004.3,-5.49,-6.35,-6.35,0,*5F
1491714118.42,12647,11.38,74006.0,-5.49,-6.35,-6.43,0,*5F
1491714119.65,12648,11.38,74006.5,-5.45,-6.31,-6.31,0,*5D
1491714120.88,12649,11.38,74004.3,-5.49,-6.35,-6.35,0,*50
1491714122.11,12650,11.38,74004.8,-5.49,-6.35,-6.35,0,*58
1491714123.34,12651,11.38,74004.0,-5.49,-6.35,-6.43,0,*58
1491714124.56,12652,11.38,74004.8,-5.45,-6.31,-6.39,0,*5E
1491714125.79,12653,11.38,74004.8,-5.49,-6.35,-6.35,0,*5B
1491714127.02,12654,11.38,74006.8,-5.49,-6.35,-6.35,0,*5C
1491714128.24,12655,11.38,74006.5,-5.49,-6.35,-6.35,0,*5D
1491714129.48,12656,11.38,74004.8,-5.45,-6.31,-6.31,0,*52
1491714130.7,12657,11.38,74004.5,-5.49,-6.43,-6.35,0,*5E
1491714131.93,12658,11.38,74004.3,-5.49,-6.35,-6.35,0,*50
1491714133.15,12659,11.38,74004.8,-5.45,-6.31,-6.39,0,*55
1491714134.38,12660,11.38,74004.8,-5.49,-6.35,-6.35,0,*5B
1491714135.61,12661,11.38,74006.0,-5.45,-6.31,-6.31,0,*56
1491714136.83,12662,11.38,74004.8,-5.45,-6.31,-6.39,0,*5D
1491714138.07,12663,11.38,74004.3,-5.49,-6.35,-6.31,0,*5C
1491714139.3,12664,11.38,74008.5,-5.45,-6.31,-6.31,0,*53
1491714140.53,12665,11.38,74004.8,-5.45,-6.31,-6.31,0,*52
1491714141.76,12666,11.38,74004.8,-5.45,-6.31,-6.31,0,*51
1491714142.98,12667,11.38,74006.3,-5.45,-6.31,-6.39,0,*58
1491714144.21,12668,11.38,74004.0,-5.45,-6.31,-6.39,0,*57
1491714145.43,12669,11.38,74006.3,-5.49,-6.35,-6.35,0,*52
1491714146.66,12670,11.38,74004.0,-5.45,-6.31,-6.39,0,*5E
1491714147.89,12671,11.38,74008.3,-5.45,-6.31,-6.31,0,*57
1491714149.12,12672,11.38,74006.3,-5.45,-6.31,-6.31,0,*54
1491714150.35,12673,11.38,74008.8,-5.45,-6.31,-6.31,0,*55
1491714151.58,12674,11.38,74006.3,-5.45,-6.31,-6.31,0,*52
1491714152.8,12675,11.38,74004.5,-5.45,-6.31,-6.39,0,*5B
1491714154.03,12676,11.38,74004.5,-5.45,-6.31,-6.31,0,*50
1491714155.26,12677,11.38,74004.0,-5.45,-6.31,-6.31,0,*51
1491714156.5,12678,11.38,74004.5,-5.45,-6.31,-6.31,0,*5E
1491714157.73,12679,11.38,74004.8,-5.45,-6.31,-6.31,0,*5F
1491714158.96,12680,11.38,74004.8,-5.45,-6.31,-6.31,0,*59
1491714160.18,12681,11.38,74004.3,-5.45,-6.31,-6.39,0,*50
1491714161.42,12682,11.38,74004.3,-5.43,-6.27,-6.27,0,*5D
1491714162.65,12683,11.38,74006.8,-5.45,-6.31,-6.31,0,*5A
1491714163.87,12684,11.38,74004.5,-5.43,-6.27,-6.35,0,*58
1491714165.12,12685,11.38,74010.5,-5.43,-6.27,-6.27,0,*5A
1491714166.32,12686,11.38,74008.8,-5.43,-6.35,-6.35,0,*59
1491714167.55,12687,11.38,74006.3,-5.45,-6.31,-6.31,0,*5E
1491714168.76,12688,11.38,74008.5,-5.43,-6.35,-6.35,0,*57
1491714170.0,12689,11.38,74004.5,-5.43,-6.27,-6.27,0,*56
1491714171.24,12690,11.38,74006.8,-5.43,-6.27,-6.27,0,*5E
1491714172.49,12691,11.38,74008.0,-5.43,-6.27,-6.27,0,*5F
1491714173.71,12692,11.38,74008.5,-5.43,-6.27,-6.35,0,*5F
1491714174.91,12693,11.38,74004.8,-5.43,-6.35,-6.35,0,*5D
1491714176.11,12694,11.38,74006.5,-5.43,-6.35,-6.35,0,*5A
1491714177.36,12695,11.38,74008.0,-5.43,-6.27,-6.27,0,*5B
1491714178.58,12696,11.38,74006.3,-5.43,-6.27,-6.35,0,*5B
1491714179.82,12697,11.38,74008.3,-5.43,-6.27,-6.27,0,*59
1491714181.07,12698,11.38,74006.3,-5.43,-6.27,-6.27,0,*56
1491714182.31,12699,11.38,74006.0,-5.43,-6.27,-6.27,0,*57
1491714183.55,12700,11.38,74006.3,-5.43,-6.27,-6.27,0,*56
1491714184.78,12701,11.38,74010.0,-5.45,-6.31,-6.39,0,*59
1491714186.05,12702,11.38,74006.5,-5.41,-6.27,-6.27,0,*56
1491714187.29,12703,11.38,74004.0,-5.41,-6.27,-6.35,0,*54
1491714188.56,12704,11.38,74006.8,-5.41,-6.27,-6.27,0,*50
1491714189.83,12705,11.38,74008.8,-5.41,-6.27,-6.27,0,*51
1491714191.08,12706,11.44,74010.8,-5.41,-6.27,-6.35,0,*51
1491714192.33,12707,11.38,74004.5,-5.41,-6.27,-6.35,0,*50
1491714193.58,12708,11.38,74006.0,-5.41,-6.27,-6.35,0,*5F
1491714194.85,12709,11.38,74006.8,-5.41,-6.27,-6.27,0,*5D
1491714196.06,12710,11.38,74010.5,-5.39,-6.31,-6.23,0,*59
1491714197.33,12711,11.38,74004.5,-5.41,-6.27,-6.27,0,*54
1491714198.59,12712,11.38,74006.3,-5.41,-6.35,-6.27,0,*54
1491714199.86,12713,11.38,74004.5,-5.41,-6.27,-6.27,0,*56
1491714201.08,12714,11.38,74006.8,-5.39,-6.23,-6.31,0,*5D
1491714202.3,12715,11.38,74004.3,-5.39,-6.23,-6.31,0,*5C
1491714203.52,12716,11.38,74004.8,-5.39,-6.23,-6.31,0,*5F
1491714204.74,12717,11.38,74008.3,-5.39,-6.31,-6.23,0,*5E
1491714205.98,12718,11.38,74004.5,-5.39,-6.27,-6.27,0,*52
1491714207.2,12719,11.38,74006.8,-5.39,-6.23,-6.31,0,*50
1491714208.44,12720,11.38,74010.8,-5.35,-6.27,-6.27,0,*55
1491714209.66,12721,11.38,74004.3,-5.39,-6.31,-6.23,0,*5B
1491714210.91,12722,11.38,74004.5,-5.41,-6.27,-6.35,0,*57
1491714212.15,12723,11.38,74006.3,-5.39,-6.23,-6.23,0,*5A
1491714213.4,12724,11.38,74008.5,-5.35,-6.19,-6.19,0,*51
1491714214.64,12725,11.38,74004.5,-5.35,-6.19,-6.27,0,*5D
1491714215.89,12726,11.38,74006.8,-5.35,-6.19,-6.19,0,*53
1491714217.14,12727,11.38,74004.8,-5.35,-6.19,-6.19,0,*52
1491714218.39,12728,11.38,74006.8,-5.35,-6.19,-6.19,0,*5D
1491714219.64,12729,11.38,74006.3,-5.35,-6.19,-6.19,0,*5C
1491714220.86,12730,11.38,74006.0,-5.39,-6.23,-6.31,0,*5B
1491714222.1,12731,11.38,74008.8,-5.39,-6.23,-6.23,0,*59
1491714223.33,12732,11.38,74006.3,-5.39,-6.23,-6.31,0,*59
1491714224.57,12733,11.38,74006.8,-5.39,-6.23,-6.23,0,*5B
1491714225.81,12734,11.38,74004.8,-5.35,-6.19,-6.19,0,*50
1491714227.05,12735,11.38,74008.0,-5.35,-6.27,-6.27,0,*51
1491714228.3,12736,11.38,74010.8,-5.35,-6.27,-6.19,0,*5F
1491714229.54,12737,11.38,74004.8,-5.35,-6.19,-6.27,0,*5E
1491714230.79,12738,11.38,74006.5,-5.35,-6.19,-6.19,0,*5C
1491714232.03,12739,11.38,74006.8,-5.35,-6.27,-6.27,0,*5D
1491714233.28,12740,11.38,74006.5,-5.35,-6.19,-6.19,0,*53
1491714234.53,12741,11.38,74006.8,-5.35,-6.19,-6.19,0,*52
1491714235.78,12742,11.38,74008.3,-5.35,-6.19,-6.27,0,*5C
1491714237.05,12743,11.38,74006.3,-5.33,-6.19,-6.19,0,*56
1491714238.3,12744,11.38,74008.5,-5.35,-6.19,-6.19,0,*57
1491714239.54,12745,11.38,74006.8,-5.35,-6.27,-6.19,0,*5B
1491714240.81,12746,11.38,74006.3,-5.33,-6.19,-6.27,0,*5E
1491714242.06,12747,11.38,74004.5,-5.35,-6.19,-6.27,0,*59
1491714243.33,12748,11.38,74006.3,-5.33,-6.19,-6.27,0,*50
1491714244.6,12749,11.38,74008.0,-5.33,-6.19,-6.19,0,*5C
1491714245.88,12750,11.38,74010.0,-5.33,-6.19,-6.19,0,*54
1491714247.15,12751,11.38,74006.5,-5.33,-6.19,-6.27,0,*58
1491714248.41,12752,11.38,74006.5,-5.33,-6.27,-6.27,0,*56
1491714249.68,12753,11.38,74008.8,-5.33,-6.19,-6.27,0,*5A
1491714250.93,12754,11.38,74008.3,-5.35,-6.19,-6.19,0,*56
1491714252.18,12755,11.38,74004.3,-5.35,-6.19,-6.19,0,*57
1491714253.45,12756,11.38,74006.8,-5.33,-6.19,-6.19,0,*52
1491714254.72,12757,11.38,74006.8,-5.33,-6.19,-6.27,0,*5E
1491714256.0,12758,11.38,74006.3,-5.33,-6.19,-6.19,0,*5C
1491714257.22,12759,11.38,74010.3,-5.31,-6.13,-6.13,0,*5F
1491714258.47,12760,11.38,74006.0,-5.31,-6.13,-6.23,0,*56
1491714259.74,12761,11.38,74004.0,-5.31,-6.23,-6.23,0,*54
1491714261.01,12762,11.38,74008.0,-5.31,-6.23,-6.27,0,*53
1491714262.26,12763,11.44,74010.5,-5.31,-6.13,-6.23,0,*55
1491714263.51,12764,11.38,74006.8,-5.31,-6.13,-6.23,0,*52
1491714264.74,12765,11.38,74008.3,-5.31,-6.13,-6.13,0,*50
1491714266.01,12766,11.38,74008.8,-5.31,-6.23,-6.23,0,*53
1491714267.23,12767,11.38,74010.3,-5.31,-6.13,-6.13,0,*52
1491714268.48,12768,11.38,74006.5,-5.31,-6.23,-6.13,0,*5E
1491714269.7,12769,11.38,74006.3,-5.31,-6.13,-6.13,0,*5C
1491714270.9,12770,11.38,74008.3,-5.29,-6.13,-6.13,0,*5D
1491714272.13,12771,11.38,74008.8,-5.31,-6.13,-6.13,0,*55
1491714273.38,12772,11.38,74006.3,-5.31,-6.13,-6.23,0,*55
1491714274.58,12773,11.38,74004.5,-5.29,-6.13,-6.13,0,*5E
1491714275.83,12774,11.38,74004.5,-5.29,-6.23,-6.23,0,*59
1491714277.07,12775,11.38,74006.3,-5.31,-6.13,-6.23,0,*52
1491714278.32,12776,11.38,74008.0,-5.31,-6.13,-6.23,0,*51
1491714279.55,12777,11.38,74006.3,-5.29,-6.13,-6.23,0,*59
1491714280.77,12778,11.38,74006.8,-5.29,-6.23,-6.13,0,*56
1491714282.0,12779,11.38,74008.3,-5.29,-6.13,-6.23,0,*57
1491714283.2,12780,11.38,74006.3,-5.29,-6.13,-6.13,0,*52
1491714284.4,12781,11.44,74010.8,-5.29,-6.13,-6.13,0,*53
1491714285.6,12782,11.38,74006.5,-5.29,-6.13,-6.13,0,*50
1491714286.8,12783,11.38,74006.0,-5.29,-6.13,-6.13,0,*51
1491714288.03,12784,11.38,74010.8,-5.29,-6.13,-6.23,0,*55
1491714289.25,12785,11.38,74004.0,-5.29,-6.13,-6.23,0,*54
1491714290.45,12786,11.38,74006.3,-5.29,-6.13,-6.13,0,*54
1491714291.68,12787,11.38,74010.8,-5.29,-6.13,-6.23,0,*56
1491714292.88,12788,11.38,74006.5,-5.29,-6.13,-6.13,0,*5A
1491714294.13,12789,11.38,74008.3,-5.27,-6.09,-6.19,0,*54
1491714295.36,12790,11.38,74004.5,-5.27,-6.09,-6.09,0,*5D
1491714296.58,12791,11.38,74004.3,-5.27,-6.09,-6.09,0,*5C
1491714297.83,12792,11.44,74008.5,-5.27,-6.09,-6.19,0,*5E
1491714299.06,12793,11.38,74008.3,-5.27,-6.09,-6.09,0,*5E
1491714300.31,12794,11.38,74006.0,-5.27,-6.09,-6.19,0,*58
1491714301.53,12795,11.38,74008.5,-5.27,-6.09,-6.09,0,*58
1491714302.81,12796,11.38,74010.8,-5.27,-6.19,-6.19,0,*5B
1491714304.09,12797,11.38,74006.5,-5.27,-6.19,-6.19,0,*5A
1491714305.29,12798,11.44,74008.3,-5.25,-6.09,-6.09,0,*57
1491714306.51,12799,11.38,74010.5,-5.27,-6.09,-6.09,0,*54
1491714307.77,12800,11.38,74006.8,-5.27,-6.09,-6.19,0,*5A
1491714308.99,12801,11.38,74008.0,-5.25,-6.19,-6.09,0,*59
1491714310.19,12802,11.44,74010.3,-5.25,-6.09,-6.09,0,*5B
1491714311.39,12803,11.38,74008.8,-5.25,-6.09,-6.09,0,*5A
1491714312.62,12804,11.38,74008.8,-5.27,-6.09,-6.09,0,*5F
1491714313.81,12805,11.38,74008.0,-5.25,-6.09,-6.09,0,*5C
1491714315.07,12806,11.38,74008.8,-5.25,-6.19,-6.19,0,*5F
1491714316.29,12807,11.44,74008.8,-5.27,-6.09,-6.09,0,*5C
1491714317.49,12808,11.38,74008.8,-5.25,-6.09,-6.09,0,*51
1491714318.72,12809,11.38,74010.5,-5.25,-6.09,-6.19,0,*51
1491714319.92,12810,11.38,74008.3,-5.25,-6.09,-6.09,0,*58
1491714321.12,12811,11.38,74008.3,-5.25,-6.09,-6.09,0,*59
1491714322.35,12812,11.38,74004.5,-5.25,-6.19,-6.09,0,*5B
1491714323.54,12813,11.38,74010.3,-5.21,-6.05,-6.13,0,*58
1491714324.77,12814,11.38,74010.5,-5.25,-6.19,-6.09,0,*5D
1491714325.97,12815,11.38,74008.0,-5.21,-6.09,-6.09,0,*59
1491714327.16,12816,11.44,74012.3,-5.21,-6.13,-6.09,0,*51
1491714328.36,12817,11.38,74010.5,-5.21,-6.05,-6.05,0,*5B
1491714329.55,12818,11.38,74008.0,-5.21,-6.05,-6.05,0,*54
1491714330.74,12819,11.38,74006.3,-5.21,-6.05,-6.05,0,*55
1491714331.94,12820,11.38,74010.0,-5.21,-6.05,-6.05,0,*5F
1491714333.13,12821,11.44,74012.5,-5.21,-6.05,-6.13,0,*59
1491714334.32,12822,11.38,74008.5,-5.21,-6.05,-6.05,0,*5D
1491714335.52,12823,11.38,74008.8,-5.21,-6.05,-6.05,0,*5C
1491714336.71,12824,11.38,74008.3,-5.21,-6.05,-6.05,0,*5B
1491714337.93,12825,11.38,74006.5,-5.19,-6.05,-6.05,0,*51
1491714339.12,12826,11.38,74010.3,-5.21,-6.05,-6.05,0,*59
1491714340.31,12827,11.38,74008.0,-5.21,-6.05,-6.13,0,*5F
1491714341.51,12828,11.38,74008.0,-5.21,-6.13,-6.05,0,*50
1491714342.71,12829,11.38,74008.5,-5.21,-6.05,-6.13,0,*51
1491714343.9,12830,11.38,74010.3,-5.21,-6.13,-6.05,0,*59
1491714345.12,12831,11.44,74008.8,-5.19,-6.05,-6.13,0,*53
1491714346.34,12832,11.38,74008.5,-5.19,-6.05,-6.05,0,*57
1491714347.55,12833,11.38,74008.0,-5.19,-6.05,-6.13,0,*51
1491714348.77,12834,11.38,74006.8,-5.19,-6.05,-6.13,0,*56
1491714349.96,12835,11.38,74010.5,-5.21,-6.05,-6.05,0,*5B
1491714351.18,12836,11.38,74010.3,-5.19,-6.05,-6.13,0,*54
1491714352.4,12837,11.38,74006.5,-5.19,-6.13,-6.13,0,*52
1491714353.62,12838,11.38,74006.0,-5.19,-6.13,-6.13,0,*5D
1491714354.81,12839,11.38,74008.3,-5.21,-6.05,-6.13,0,*50
1491714356.03,12840,11.38,74008.3,-5.19,-6.05,-6.05,0,*52
1491714357.25,12841,11.44,74010.3,-5.19,-6.05,-6.05,0,*53
1491714358.44,12842,11.38,74010.3,-5.21,-6.05,-6.05,0,*5B
1491714359.63,12843,11.38,74006.8,-5.17,-6.01,-6.09,0,*57
1491714360.83,12844,11.44,74010.5,-5.21,-6.05,-6.05,0,*5D
1491714362.05,12845,11.44,74008.8,-5.19,-6.13,-6.05,0,*50
1491714363.26,12846,11.38,74008.8,-5.19,-6.05,-6.13,0,*53
1491714364.48,12847,11.38,74008.0,-5.19,-6.13,-6.05,0,*52
1491714365.7,12848,11.38,74004.3,-5.19,-6.05,-6.05,0,*5A
1491714366.89,12849,11.38,74008.3,-5.17,-6.01,-6.09,0,*5D
1491714368.09,12850,11.38,74004.5,-5.17,-6.01,-6.01,0,*5D
1491714369.28,12851,11.38,74010.3,-5.17,-6.01,-6.09,0,*54
1491714370.5,12852,11.38,74008.5,-5.19,-6.13,-6.13,0,*51
1491714371.72,12853,11.44,74012.3,-5.19,-6.05,-6.05,0,*50
1491714372.91,12854,11.38,74006.3,-5.17,-6.01,-6.01,0,*59
1491714374.11,12855,11.38,74010.0,-5.17,-6.01,-6.09,0,*50
1491714375.3,12856,11.44,74010.5,-5.17,-6.01,-6.01,0,*5B
1491714376.5,12857,11.38,74010.0,-5.17,-6.09,-6.01,0,*52
1491714377.7,12858,11.38,74008.5,-5.17,-6.09,-6.09,0,*55
1491714378.89,12859,11.38,74008.5,-5.17,-6.01,-6.09,0,*5C
1491714380.08,12860,11.38,74008.0,-5.13,-5.97,-6.05,0,*52
1491714381.28,12861,11.38,74006.3,-5.17,-6.01,-6.01,0,*5F
1491714382.47,12862,11.38,74008.3,-5.17,-6.01,-6.01,0,*5C
1491714383.67,12863,11.38,74008.8,-5.17,-6.09,-6.01,0,*55
1491714384.87,12864,11.38,74010.5,-5.17,-6.09,-6.01,0,*52
1491714386.06,12865,11.38,74010.5,-5.13,-5.97,-5.97,0,*5F
1491714387.26,12866,11.44,74010.0,-5.13,-5.97,-5.97,0,*5C
1491714388.45,12867,11.38,74004.8,-5.13,-6.05,-5.97,0,*55
1491714389.64,12868,11.38,74010.5,-5.17,-6.01,-6.09,0,*5E
1491714390.83,12869,11.38,74006.5,-5.13,-5.97,-5.97,0,*53
1491714392.03,12870,11.44,74010.8,-5.13,-5.97,-5.97,0,*5B
1491714393.22,12871,11.38,74008.8,-5.13,-5.97,-5.97,0,*5A
1491714394.41,12872,11.38,74004.5,-5.13,-5.97,-6.05,0,*51
1491714395.61,12873,11.38,74010.0,-5.13,-5.97,-5.97,0,*58
1491714396.8,12874,11.44,74010.8,-5.13,-6.05,-6.05,0,*5F
1491714397.99,12875,11.44,74008.8,-5.13,-5.97,-5.97,0,*5E
1491714399.19,12876,11.38,74008.3,-5.13,-5.97,-6.05,0,*55
1491714400.38,12877,11.38,74004.8,-5.13,-6.05,-6.05,0,*5C
1491714401.57,12878,11.38,74008.8,-5.17,-5.97,-6.05,0,*5F
1491714402.76,12879,11.44,74008.8,-5.13,-5.97,-5.97,0,*52
1491714403.96,12880,11.44,74010.8,-5.13,-5.97,-5.97,0,*54
1491714405.17,12881,11.38,74010.5,-5.11,-5.97,-5.97,0,*57
1491714406.4,12882,11.38,74010.3,-5.09,-5.93,-6.01,0,*55
1491714407.61,12883,11.44,74008.8,-5.11,-5.97,-6.05,0,*5D
1491714408.83,12884,11.44,74010.5,-5.11,-5.97,-5.97,0,*52
1491714410.05,12885,11.44,74008.3,-5.09,-5.93,-6.01,0,*52
1491714411.27,12886,11.44,74010.0,-5.11,-5.97,-6.05,0,*58
1491714412.52,12887,11.44,74010.8,-5.09,-5.93,-5.93,0,*58
1491714413.74,12888,11.44,74010.5,-5.11,-5.97,-5.97,0,*5E
1491714414.95,12889,11.44,74008.0,-5.11,-6.05,-6.05,0,*5F
1491714416.17,12890,11.44,74010.3,-5.11,-5.97,-5.97,0,*57
1491714417.36,12891,11.44,74010.8,-5.09,-6.05,-5.97,0,*57
1491714418.55,12892,11.38,74008.5,-5.09,-5.97,-6.05,0,*54
1491714419.74,12893,11.44,74010.5,-5.09,-5.97,-5.97,0,*5D
1491714420.94,12894,11.44,74008.8,-5.09,-6.01,-6.01,0,*5A
1491714422.15,12895,11.44,74008.5,-5.11,-5.97,-6.05,0,*5A
1491714423.41,12896,11.44,74010.5,-5.09,-5.93,-5.93,0,*58
1491714424.66,12897,11.38,74004.8,-5.09,-5.93,-5.93,0,*59
1491714425.87,12898,11.44,74010.0,-5.11,-5.97,-6.05,0,*57
1491714427.12,12899,11.38,74006.5,-5.09,-5.93,-5.93,0,*57
1491714428.38,12900,11.44,74010.0,-5.09,-5.93,-5.93,0,*56
1491714429.6,12901,11.44,74010.0,-5.09,-5.93,-6.01,0,*5F
1491714430.79,12902,11.44,74008.8,-5.09,-6.01,-6.01,0,*54
1491714432.04,12903,11.38,74006.0,-5.07,-5.89,-5.97,0,*54
1491714433.31,12904,11.44,74010.3,-5.07,-5.89,-5.89,0,*5C
1491714434.58,12905,11.44,74008.8,-5.07,-5.89,-5.89,0,*5D
1491714435.83,12906,11.44,74010.3,-5.07,-5.89,-5.97,0,*51
1491714437.1,12907,11.38,74006.0,-5.07,-5.89,-5.89,0,*5F
1491714438.32,12908,11.38,74004.5,-5.07,-5.97,-5.97,0,*50
1491714439.56,12909,11.38,74006.5,-5.07,-5.89,-5.97,0,*5E
1491714440.78,12910,11.38,74006.8,-5.09,-6.01,-5.93,0,*5F
1491714442.01,12911,11.44,74010.0,-5.09,-5.93,-6.01,0,*5E
1491714443.23,12912,11.44,74008.3,-5.09,-6.01,-5.93,0,*5D
1491714444.45,12913,11.44,74012.5,-5.09,-6.01,-5.93,0,*5C
1491714445.65,12914,11.44,74008.0,-5.09,-6.01,-6.01,0,*53
1491714446.92,12915,11.44,74010.0,-5.07,-5.89,-5.89,0,*5C
1491714448.15,12916,11.44,74012.0,-5.05,-6.01,-5.89,0,*5E
1491714449.42,12917,11.44,74008.8,-5.07,-5.89,-5.89,0,*5E
1491714450.64,12918,11.44,74010.5,-5.07,-5.97,-5.97,0,*51
1491714451.89,12919,11.44,74010.0,-5.07,-5.97,-5.89,0,*5F
1491714453.09,12920,11.38,74008.5,-5.05,-5.97,-5.97,0,*58
1491714454.33,12921,11.38,74006.5,-5.07,-5.89,-5.97,0,*54
1491714455.55,12922,11.44,74010.8,-5.05,-5.89,-5.97,0,*55
1491714456.75,12923,11.44,74008.8,-5.05,-5.97,-5.97,0,*5B
1491714457.97,12924,11.38,74010.3,-5.05,-5.89,-5.97,0,*53
1491714459.22,12925,11.44,74010.5,-5.07,-5.97,-5.89,0,*50
1491714460.41,12926,11.44,74010.0,-5.05,-5.97,-5.97,0,*5E
1491714461.61,12927,11.44,74010.0,-5.05,-5.97,-5.97,0,*5F
1491714462.86,12928,11.44,74008.5,-5.05,-5.89,-5.89,0,*50
1491714464.06,12929,11.44,74008.5,-5.05,-5.97,-5.97,0,*51
1491714465.28,12930,11.44,74010.5,-5.05,-5.89,-5.97,0,*56
1491714466.48,12931,11.44,74008.5,-5.05,-5.97,-5.97,0,*58
1491714467.7,12932,11.44,74008.3,-5.05,-5.97,-5.89,0,*54
1491714468.9,12933,11.38,74010.5,-5.05,-5.97,-5.97,0,*5A
1491714470.1,12934,11.38,74010.5,-5.05,-5.97,-5.97,0,*5D
1491714471.31,12935,11.38,74010.0,-5.07,-5.97,-6.01,0,*52
1491714472.51,12936,11.38,74010.8,-5.05,-5.97,-5.97,0,*5F
1491714473.73,12937,11.44,74012.3,-5.05,-5.89,-5.97,0,*51
1491714474.93,12938,11.44,74010.0,-5.05,-5.97,-5.97,0,*51
1491714476.13,12939,11.44,74012.5,-5.05,-5.97,-6.01,0,*5C
1491714477.32,12940,11.44,74008.8,-5.05,-5.97,-5.97,0,*5E
1491714478.6,12941,11.38,74008.0,-5.03,-5.93,-5.93,0,*59
1491714479.87,12942,11.38,74008.0,-5.03,-5.93,-5.85,0,*5D
1491714481.15,12943,11.38,74010.0,-5.03,-5.85,-5.93,0,*5C
1491714482.35,12944,11.38,74010.0,-5.05,-5.97,-5.97,0,*5A
1491714483.57,12945,11.38,74008.3,-5.05,-5.89,-5.97,0,*54
1491714484.79,12946,11.44,74010.8,-5.05,-5.89,-5.97,0,*57
1491714486.01,12947,11.44,74012.8,-5.05,-5.89,-5.97,0,*56
1491714487.29,12948,11.44,74014.0,-5.03,-5.93,-5.93,0,*50
1491714488.53,12949,11.38,74010.8,-5.03,-5.97,-5.93,0,*55
1491714489.81,12950,11.38,74010.0,-5.03,-5.85,-5.85,0,*59
1491714491.09,12951,11.38,74008.3,-5.03,-5.93,-5.85,0,*5F
1491714492.33,12952,11.44,74010.8,-5.03,-5.93,-5.97,0,*5F
1491714493.61,12953,11.44,74012.0,-5.03,-5.85,-5.93,0,*5D
1491714494.88,12954,11.44,74012.5,-5.03,-5.85,-5.93,0,*5A
1491714496.13,12955,11.38,74010.0,-5.01,-5.93,-5.93,0,*5E
1491714497.38,12956,11.44,74010.8,-5.01,-5.85,-5.93,0,*5A
1491714498.62,12957,11.44,74010.8,-5.03,-5.85,-5.97,0,*5D
1491714499.84,12958,11.44,74008.8,-5.01,-5.97,-5.93,0,*57
1491714501.09,12959,11.44,74010.8,-5.01,-5.85,-5.93,0,*55
1491714502.34,12960,11.44,74010.8,-5.01,-5.93,-5.93,0,*58
1491714503.61,12961,11.38,74010.8,-5.03,-5.93,-5.93,0,*5B
1491714504.86,12962,11.44,74010.8,-5.01,-5.93,-5.93,0,*5A
1491714506.11,12963,11.44,74012.0,-5.01,-5.93,-5.93,0,*5B